This is the latest recevied weather packets stored in our database for station/object KC5DAQ-26. If no packets are shown the sender has not sent any weather packets the latest 10 day(s).
| Time | Temp. | Humidity | Pressure | Rain* | Wind** | Luminosity | Snow |
|---|---|---|---|---|---|---|---|
| 1787954520 | 29.44° C | 72% | 1018.6 hPa | 0 mm | - | 18 W/m² | - |
| 1787954459 | 29.44° C | 72% | 1018.5 hPa | 0 mm | - | 18 W/m² | - |
| 1787954397 | 29.44° C | 72% | 1018.4 hPa | 0 mm | - | 21 W/m² | - |
| 1787954335 | 29.44° C | 72% | 1018.2 hPa | 0 mm | - | 25 W/m² | - |
| 1787954275 | 29.44° C | 72% | 1018.1 hPa | 0 mm | - | 28 W/m² | - |
| 1787954213 | 29.44° C | 73% | 1018.1 hPa | 0 mm | - | 32 W/m² | - |
| 1787954151 | 29.44° C | 73% | 1018 hPa | 0 mm | - | 35 W/m² | - |
| 1787954090 | 29.44° C | 72% | 1017.8 hPa | 0 mm | - | 39 W/m² | - |
| 1787954028 | 29.44° C | 72% | 1017.9 hPa | 0 mm | - | 41 W/m² | - |
| 1787953966 | 29.44° C | 72% | 1017.9 hPa | 0 mm | - | 42 W/m² | - |
| 1787953906 | 29.44° C | 72% | 1017.8 hPa | 0 mm | - | 44 W/m² | - |
| 1787953844 | 29.44° C | 72% | 1017.9 hPa | 0 mm | - | 48 W/m² | - |
| 1787953782 | 29.44° C | 72% | 1017.9 hPa | 0 mm | - | 55 W/m² | - |
| 1787953721 | 29.44° C | 71% | 1017.9 hPa | 0 mm | - | 58 W/m² | - |
| 1787953660 | 29.44° C | 71% | 1017.9 hPa | 0 mm | - | 62 W/m² | - |
| 1787953598 | 30° C | 71% | 1017.9 hPa | 0 mm | - | 63 W/m² | - |
| 1787953536 | 30° C | 71% | 1017.8 hPa | 0 mm | - | 67 W/m² | - |
| 1787953475 | 30° C | 71% | 1017.6 hPa | 0 mm | - | 72 W/m² | - |
| 1787953414 | 30° C | 71% | 1017.5 hPa | 0 mm | - | 76 W/m² | - |
| 1787953354 | 30° C | 71% | 1017.5 hPa | 0 mm | - | 79 W/m² | - |
| 1787953292 | 30° C | 72% | 1017.5 hPa | 0 mm | - | 84 W/m² | - |
| 1787953235 | 30° C | 71% | 1017.5 hPa | 0 mm | - | 100 W/m² | - |
| 1787953173 | 30.56° C | 71% | 1017.5 hPa | 0 mm | - | 100 W/m² | - |
| 1787953113 | 30.56° C | 72% | 1017.8 hPa | 0 mm | - | 100 W/m² | - |
| 1787953051 | 30.56° C | 72% | 1017.7 hPa | 0 mm | - | 107 W/m² | - |
* Rain latest hour (hover to see other rain measurements)
** Current wind speed in m/s (hover to see current wind gust speed)